Temp
12 12 12 11 11 12 14 14 15 14 13 13 12 12 11 11 9 8 8 8 9 8 8 8 9 9 8 8 7 7 8 8 8 8 8 8 9 9 8 8 9 9 9 9 9 9 9 9 8
12 13 10 10 11 13 13 14 13 13 13 13 12 11 10 9 9 9 8 7 8 8 8 8 9 9 8 8 7 8 8 8 8 8 8 8 9 8 8 9 9 9 9 9 9 9 9 9 9
12 12 11 10 13 14 14 13 13 12 12 12 11 11 10 9 8 8 8 8 8 9 8 8 9 8 8 9 8 8 8 8 8 8 8 9 9 9 9 9 9 9 9 9 9 9 9 9 9
12 12 10 11 12 14 14 14 13 13 12 12 11 10 10 9 8 8 8 8 9 8 8 8 9 9 9 9 9 9 8 8 8 8 8 9 9 9 9 9 9 9 9 9 9 9 9 9 10
11 11 13 12 12 14 14 14 13 12 12 11 10 10 9 8 8 8 8 8 8 8 9 8 9 9 9 9 9 8 8 8 8 8 8 9 9 8 8 9 9 9 9 9 9 10 10 9 9
10 10 12 12 14 14 14 13 12 11 12 12 10 9 9 8 8 8 8 8 8 8 8 9 9 9 9 9 9 8 8 8 9 9 9 9 9 8 8 9 9 9 9 9 10 10 9 9 9
11 10 10 10 13 13 13 13 11 12 12 11 11 9 8 8 8 8 8 7 8 8 8 9 8 9 9 9 9 9 9 9 8 9 9 9 9 9 8 8 8 9 10 9 10 9 9 9 9
10 11 9 9 12 12 12 12 11 12 11 11 9 9 9 8 8 8 8 8 8 7 9 8 8 8 8 9 9 9 9 9 9 9 9 9 9 9 9 9 8 9 10 10 9 9 9 9 9
11 10 9 9 10 11 11 12 11 12 12 12 11 10 9 8 8 8 8 8 7 8 8 9 9 9 8 8 8 8 8 8 9 9 9 9 9 9 9 9 9 9 10 9 9 9 9 9 9
12 10 10 11 12 11 11 10 11 12 12 11 10 9 9 8 8 8 8 8 7 7 7 8 8 8 8 8 8 8 8 9 9 9 9 10 9 9 9 9 9 9 9 9 9 9 9 8 8
12 10 10 10 11 10 9 10 10 11 11 11 11 9 9 8 8 8 8 8 8 8 8 8 9 8 8 8 8 8 8 8 9 9 9 8 8 8 9 9 9 9 9 9 9 9 9 8 8
13 12 11 11 10 10 9 10 10 11 11 11 10 9 9 8 8 8 8 8 8 8 7 8 8 8 7 8 8 8 8 8 9 9 8 8 9 9 8 9 9 9 9 10 10 8 9 8 9
13 11 11 10 11 10 10 9 10 10 10 10 10 9 9 8 8 8 8 8 7 8 7 9 8 7 7 7 7 7 8 8 9 9 9 8 8 8 8 9 9 9 8 8 9 9 9 9 9
12 11 11 10 10 11 10 11 11 10 10 10 10 9 9 9 9 8 8 8 8 8 7 7 8 7 6 7 8 7 8 7 9 9 8 8 8 8 8 8 8 8 8 9 9 9 8 9 10
13 12 11 11 11 9 11 11 11 11 11 10 10 10 9 9 8 8 8 8 8 8 8 8 8 7 6 6 8 7 6 7 9 9 8 8 9 9 9 8 8 8 8 9 9 9 8 10 10
14 13 12 10 11 11 11 11 10 9 10 10 10 9 9 9 8 8 8 8 7 7 8 8 8 8 6 7 8 7 6 6 9 9 9 9 8 9 9 7 8 8 8 8 9 9 8 10 10
15 14 13 13 10 10 9 10 11 11 10 10 9 9 8 9 8 8 8 8 8 8 8 7 8 7 8 8 7 8 6 7 8 9 9 9 8 9 9 9 7 7 8 7 8 8 8 9 10
12 13 13 12 11 10 9 10 11 10 9 10 9 9 8 8 9 10 8 8 8 8 8 8 8 7 8 8 8 8 8 7 9 8 8 7 8 8 9 8 8 8 9 8 7 8 8 8 8
14 14 13 12 12 11 11 11 11 11 10 10 10 10 8 9 9 9 8 8 8 9 9 8 7 7 8 8 8 9 8 9 8 7 7 8 8 7 7 9 7 9 9 9 8 8 9 8 8
14 14 14 13 12 12 12 12 11 12 11 10 9 9 9 9 9 8 9 8 8 9 9 8 8 8 8 8 9 9 8 9 8 8 8 8 9 7 7 7 8 8 8 9 7 8 9 10 9
15 15 13 13 13 13 13 12 10 10 10 10 10 9 9 9 9 10 8 8 9 9 10 9 9 9 8 9 9 9 8 9 9 8 8 8 8 7 8 8 8 7 8 8 8 8 10 9 9
15 14 13 13 14 15 13 14 11 10 10 10 10 10 9 9 8 8 9 8 8 9 9 9 9 9 9 9 9 9 9 9 8 8 8 9 9 8 9 8 7 8 8 8 8 9 9 9 10
15 14 14 13 13 15 16 15 14 10 9 10 10 9 10 9 9 9 9 9 8 9 10 10 10 9 9 10 9 9 8 8 7 8 8 7 9 9 10 9 8 7 9 8 8 9 9 10 9
15 14 14 13 14 16 17 17 13 11 13 11 11 9 10 10 9 9 9 9 9 8 9 11 10 10 9 9 10 9 8 8 8 6 8 9 9 9 9 10 9 8 8 8 8 10 10 9 10
14 15 15 16 16 16 14 15 12 12 12 11 12 12 11 11 10 9 9 9 10 9 9 11 10 10 10 10 10 10 9 9 9 9 8 8 8 9 9 10 9 9 10 10 10 10 10 10 10
15 15 16 14 13 10 13 13 13 13 13 13 12 12 12 11 10 10 9 9 9 10 9 10 10 10 10 10 10 10 10 9 9 9 9 9 8 8 9 8 10 10 10 10 10 10 10 10 10
15 15 15 16 15 13 12 12 11 13 14 13 13 12 12 12 10 10 10 10 11 10 10 9 11 10 10 10 10 10 10 10 10 9 9 8 8 8 9 9 9 9 9 10 10 10 10 10 11
14 15 15 16 16 14 10 7 11 11 10 13 12 12 10 11 11 11 10 10 11 11 9 9 10 10 10 10 10 10 10 10 9 10 10 8 9 8 9 9 10 10 10 10 10 10 10 10 10
14 14 13 12 11 14 12 6 9 8 11 11 13 12 11 12 11 11 10 10 10 9 11 10 9 10 10 10 10 10 10 10 10 9 10 9 10 9 10 9 9 9 10 10 11 10 10 11 10
13 12 11 12 7 9 11 7 8 9 10 12 12 11 10 11 11 10 10 11 10 9 11 10 9 10 10 10 11 10 10 10 9 10 10 10 9 9 10 9 9 10 10 10 10 10 10 10 10
Height
3154 3151 3149 3152 3153 3155 3157 3159 3159 3160 3162 3166 3166 3165 3162 3158 3162 3167 3166 3172 3174 3177 3178 3178 3178 3179 3181 3183 3183 3183 3185 3188 3189 3190 3192 3193 3194 3196 3197 3198 3199 3201 3202 3203 3203 3204 3205 3206 3207
3156 3152 3151 3137 3155 3151 3160 3159 3161 3164 3167 3168 3164 3168 3167 3165 3163 3164 3170 3176 3177 3179 3180 3181 3181 3180 3181 3183 3183 3187 3190 3191 3193 3194 3195 3197 3197 3199 3200 3201 3203 3204 3204 3205 3206 3206 3208 3209 3209
3158 3156 3157 3153 3148 3152 3158 3162 3163 3164 3167 3169 3167 3173 3171 3169 3171 3171 3171 3170 3175 3178 3182 3183 3183 3183 3183 3184 3188 3191 3193 3194 3195 3197 3199 3200 3201 3202 3203 3204 3205 3205 3207 3208 3208 3209 3210 3211 3212
3159 3161 3166 3160 3156 3158 3160 3162 3165 3166 3167 3170 3170 3172 3173 3172 3175 3174 3175 3166 3177 3178 3183 3185 3185 3185 3186 3188 3191 3193 3194 3196 3198 3200 3201 3203 3204 3205 3206 3207 3208 3209 3209 3211 3211 3212 3213 3214 3215
3162 3160 3158 3159 3158 3159 3162 3164 3165 3165 3167 3165 3170 3171 3174 3173 3177 3178 3178 3178 3176 3182 3184 3187 3187 3188 3187 3189 3192 3195 3197 3198 3200 3202 3204 3205 3206 3207 3209 3210 3211 3212 3213 3214 3214 3215 3215 3217 3218
3165 3161 3158 3157 3159 3160 3162 3164 3165 3165 3170 3168 3172 3172 3175 3177 3180 3183 3183 3183 3183 3186 3189 3189 3189 3190 3190 3192 3194 3197 3199 3201 3203 3204 3205 3207 3209 3211 3212 3213 3214 3215 3216 3217 3217 3218 3219 3220 3221
3160 3157 3161 3162 3164 3163 3163 3165 3164 3169 3167 3170 3171 3174 3178 3179 3181 3181 3183 3177 3188 3187 3190 3191 3191 3191 3193 3194 3196 3198 3200 3202 3204 3206 3208 3209 3211 3213 3214 3216 3217 3217 3218 3219 3221 3221 3222 3223 3225
3151 3162 3162 3151 3164 3167 3167 3165 3169 3169 3170 3172 3172 3175 3178 3180 3184 3185 3185 3184 3189 3189 3190 3191 3192 3194 3196 3197 3199 3199 3201 3203 3205 3207 3209 3211 3213 3215 3216 3217 3219 3220 3221 3222 3223 3223 3225 3226 3228
3155 3159 3162 3159 3166 3165 3163 3169 3170 3171 3175 3173 3174 3173 3178 3181 3185 3186 3188 3190 3191 3188 3187 3188 3192 3195 3198 3200 3201 3201 3203 3205 3207 3209 3211 3212 3214 3217 3218 3219 3221 3222 3223 3224 3225 3227 3228 3229 3231
3159 3162 3164 3162 3164 3163 3163 3163 3165 3173 3175 3174 3175 3174 3179 3183 3185 3187 3188 3191 3192 3191 3188 3186 3181 3196 3200 3202 3203 3204 3205 3206 3208 3210 3212 3213 3216 3219 3220 3221 3222 3224 3225 3227 3229 3230 3231 3232 3232
3161 3144 3162 3161 3161 3158 3156 3166 3170 3173 3175 3177 3177 3180 3182 3184 3184 3188 3186 3191 3194 3190 3188 3186 3189 3197 3200 3203 3205 3206 3207 3208 3210 3212 3213 3215 3219 3221 3222 3223 3225 3226 3228 3230 3230 3232 3233 3232 3233
3161 3165 3164 3160 3161 3164 3163 3165 3171 3175 3174 3174 3178 3181 3183 3185 3185 3188 3192 3192 3191 3193 3193 3184 3190 3197 3201 3203 3205 3207 3208 3209 3213 3215 3215 3217 3219 3221 3223 3226 3226 3228 3230 3231 3232 3232 3234 3235 3236
3162 3162 3160 3159 3162 3164 3162 3164 3171 3175 3179 3180 3180 3182 3184 3185 3184 3186 3191 3193 3191 3193 3192 3191 3194 3196 3200 3202 3204 3206 3208 3212 3214 3215 3217 3218 3220 3222 3223 3225 3228 3229 3233 3233 3233 3235 3237 3238 3238
3161 3160 3162 3160 3162 3164 3163 3168 3172 3176 3178 3181 3182 3184 3185 3184 3187 3189 3187 3191 3193 3192 3192 3190 3193 3197 3198 3198 3201 3206 3208 3213 3214 3216 3216 3217 3219 3223 3225 3225 3228 3231 3230 3234 3235 3236 3236 3238 3240
3160 3160 3162 3161 3162 3162 3164 3168 3170 3176 3178 3179 3184 3186 3186 3187 3184 3188 3186 3188 3192 3191 3190 3189 3194 3196 3198 3196 3198 3205 3209 3214 3214 3217 3218 3218 3221 3224 3223 3226 3229 3230 3233 3235 3236 3237 3238 3239 3241
3161 3161 3160 3162 3161 3163 3165 3169 3168 3173 3177 3179 3184 3183 3185 3186 3186 3188 3187 3188 3187 3189 3190 3189 3194 3196 3199 3201 3204 3204 3211 3213 3214 3216 3218 3217 3218 3221 3225 3229 3230 3234 3236 3237 3237 3237 3238 3240 3241
3159 3160 3160 3158 3161 3164 3166 3167 3169 3169 3176 3177 3179 3181 3180 3188 3188 3185 3186 3188 3188 3188 3190 3191 3193 3197 3200 3203 3205 3207 3210 3212 3213 3217 3220 3222 3222 3224 3227 3228 3234 3238 3238 3240 3241 3240 3241 3242 3243
3162 3163 3161 3157 3159 3165 3166 3166 3165 3167 3171 3175 3178 3180 3180 3182 3188 3187 3187 3189 3188 3189 3191 3191 3191 3194 3198 3203 3205 3208 3210 3211 3214 3218 3222 3222 3224 3227 3229 3228 3232 3235 3234 3239 3244 3244 3242 3246 3249
3157 3162 3162 3160 3159 3166 3166 3165 3164 3165 3167 3171 3174 3177 3180 3182 3188 3189 3186 3190 3189 3189 3190 3190 3191 3192 3196 3200 3204 3206 3209 3210 3215 3218 3221 3221 3224 3225 3223 3229 3231 3230 3236 3238 3244 3247 3245 3245 3248
3159 3160 3160 3161 3162 3164 3163 3162 3160 3162 3165 3168 3171 3174 3177 3181 3186 3188 3188 3188 3189 3190 3190 3191 3192 3192 3196 3199 3204 3207 3209 3211 3217 3221 3220 3216 3222 3228 3233 3232 3234 3228 3234 3238 3245 3244 3243 3243 3247
3155 3158 3159 3161 3159 3161 3161 3160 3158 3159 3162 3166 3168 3170 3173 3175 3176 3185 3189 3189 3188 3189 3190 3191 3193 3195 3197 3199 3204 3207 3209 3211 3216 3221 3222 3221 3223 3228 3236 3233 3234 3232 3239 3241 3243 3244 3238 3239 3246
3155 3156 3158 3158 3158 3156 3157 3155 3154 3156 3160 3162 3165 3167 3169 3171 3173 3180 3186 3189 3186 3187 3191 3192 3194 3196 3198 3199 3204 3207 3209 3212 3215 3218 3220 3221 3221 3225 3230 3235 3236 3234 3236 3242 3240 3240 3238 3243 3243
3155 3156 3158 3158 3156 3154 3151 3151 3150 3152 3155 3158 3160 3162 3167 3172 3174 3178 3184 3189 3190 3186 3189 3192 3194 3197 3200 3202 3203 3206 3208 3211 3214 3215 3217 3218 3217 3218 3224 3230 3233 3234 3240 3243 3237 3240 3237 3239 3240
3154 3155 3156 3156 3155 3151 3146 3144 3149 3149 3149 3152 3155 3155 3162 3168 3174 3176 3180 3185 3189 3188 3188 3189 3194 3197 3199 3201 3203 3206 3208 3210 3212 3216 3217 3217 3217 3217 3220 3224 3230 3232 3234 3238 3237 3236 3237 3241 3244
3153 3154 3151 3149 3145 3144 3147 3145 3148 3150 3146 3148 3151 3154 3159 3166 3170 3170 3173 3180 3186 3187 3188 3188 3192 3195 3198 3200 3203 3205 3207 3209 3212 3215 3217 3218 3218 3219 3219 3220 3224 3227 3228 3230 3232 3234 3237 3240 3243
3150 3152 3146 3148 3153 3156 3148 3147 3147 3148 3147 3148 3150 3154 3157 3163 3169 3170 3171 3179 3183 3184 3185 3186 3190 3192 3195 3198 3201 3203 3206 3209 3210 3214 3217 3219 3219 3219 3220 3220 3222 3224 3226 3228 3230 3233 3236 3238 3240
3148 3148 3147 3146 3147 3150 3148 3146 3150 3148 3146 3145 3148 3152 3154 3160 3166 3167 3170 3175 3178 3182 3181 3183 3187 3190 3192 3195 3197 3201 3204 3207 3210 3212 3215 3217 3217 3217 3221 3221 3222 3223 3224 3226 3229 3231 3234 3235 3239
3146 3148 3146 3142 3140 3139 3150 3146 3146 3142 3137 3148 3141 3147 3151 3156 3162 3167 3170 3175 3176 3179 3181 3181 3184 3187 3189 3191 3194 3197 3201 3205 3209 3211 3213 3215 3215 3217 3218 3219 3220 3221 3223 3223 3225 3227 3229 3232 3233
3145 3146 3144 3145 3145 3137 3141 3153 3145 3143 3131 3136 3141 3144 3150 3154 3159 3164 3170 3169 3171 3173 3177 3179 3181 3183 3186 3188 3190 3193 3197 3201 3205 3207 3210 3213 3216 3216 3219 3221 3222 3222 3222 3223 3224 3225 3227 3228 3229
3146 3144 3145 3148 3151 3157 3149 3155 3149 3142 3140 3145 3145 3149 3140 3155 3160 3161 3164 3166 3169 3167 3175 3178 3179 3179 3183 3185 3187 3190 3194 3198 3203 3204 3207 3210 3212 3215 3217 3218 3220 3220 3222 3223 3224 3224 3225 3225 3225
Wind_Speed
12 12 10 14 5 8 17 17 14 14 13 14 17 18 16 11 12 19 19 17 13 13 16 17 17 19 18 17 19 17 18 17 19 18 18 18 18 19 20 19 19 19 19 19 19 19 19 19 20
9 10 5 11 5 19 13 15 12 15 13 12 9 18 19 23 17 23 24 9 6 13 14 15 15 15 17 18 17 18 18 18 18 18 18 18 18 19 20 20 19 19 21 19 18 18 16 16 17
9 6 4 4 7 6 20 15 17 11 16 9 16 16 16 22 20 20 16 24 18 18 14 13 15 16 17 16 17 17 17 17 18 18 17 17 18 19 19 19 19 20 20 19 17 15 15 16 16
5 5 5 4 14 10 19 16 15 12 12 11 16 21 17 15 19 15 12 8 8 18 13 13 15 16 17 17 16 15 15 16 15 15 16 17 18 18 17 18 18 18 18 17 13 13 14 14 14
9 7 4 8 3 19 16 15 13 8 15 6 19 20 19 16 19 13 7 7 5 11 12 13 15 15 16 16 15 14 14 15 14 14 16 17 17 18 18 19 18 18 17 16 14 13 16 17 16
7 6 13 1 17 18 17 15 16 11 11 7 17 16 19 17 20 17 10 7 7 7 12 12 13 14 14 15 14 14 14 14 14 15 15 16 16 17 16 19 18 17 16 15 16 17 18 18 18
14 7 7 12 13 17 13 5 12 11 14 15 12 16 17 19 21 15 8 16 6 2 11 12 13 12 13 14 14 14 15 15 15 15 15 15 15 14 14 13 15 16 15 16 17 19 19 19 18
13 7 5 4 16 14 8 10 6 13 20 14 16 18 22 16 19 19 5 13 13 9 6 13 13 12 13 12 14 15 15 15 15 15 15 15 13 12 12 13 15 15 17 18 19 20 19 19 18
16 3 8 9 9 13 9 11 6 11 11 6 3 17 19 19 17 18 16 12 5 7 6 12 13 12 13 14 13 12 12 13 13 14 15 16 16 14 12 13 13 15 17 18 19 19 19 18 18
10 10 9 5 7 13 9 14 16 13 11 10 20 19 18 18 17 14 12 9 20 9 13 16 13 12 13 13 12 10 13 11 12 13 14 14 16 14 13 13 13 14 16 17 17 17 17 17 17
5 15 11 7 7 10 23 17 8 11 16 15 11 14 17 16 19 10 19 7 5 8 8 9 10 14 14 13 11 12 10 12 12 13 15 17 15 14 13 13 13 14 16 14 14 13 11 13 18
6 4 0 3 3 6 3 13 8 7 15 15 16 15 16 16 13 13 12 13 11 9 12 10 8 15 17 12 11 11 9 10 12 13 16 13 17 16 9 12 14 15 14 13 12 14 11 14 14
2 4 8 1 6 11 7 19 16 9 9 12 12 15 14 18 10 15 14 15 17 11 10 14 11 8 15 13 9 10 11 8 13 14 11 13 11 15 13 14 10 18 12 5 12 12 13 11 14
6 10 7 3 2 7 10 13 10 14 19 11 12 15 15 11 11 12 16 15 14 15 16 10 9 7 15 19 19 15 16 7 14 14 12 13 16 12 15 10 14 11 16 12 12 11 14 12 12
7 10 4 2 2 5 12 13 7 10 14 15 12 15 16 13 17 11 17 14 13 11 7 7 9 10 12 25 22 25 14 12 15 13 15 10 13 12 16 9 18 14 15 13 11 13 16 11 14
7 4 7 7 2 4 9 8 18 13 17 19 17 20 18 16 7 12 10 13 11 5 8 2 6 12 10 16 16 15 18 14 16 17 14 13 13 11 12 17 9 13 16 14 14 11 10 12 15
13 13 12 16 6 6 9 5 11 9 23 19 15 19 13 16 15 18 9 7 10 13 9 13 12 10 14 20 19 16 17 15 15 15 14 10 10 11 9 8 6 13 11 9 13 9 12 12 13
4 10 2 10 16 6 7 8 8 17 23 26 24 17 19 15 10 12 10 7 8 14 11 11 11 16 14 18 19 16 15 14 12 13 6 6 12 9 14 8 11 17 12 12 15 16 13 17 13
3 8 4 4 4 6 6 7 7 11 28 29 24 28 18 18 11 11 17 5 15 9 14 12 10 16 16 20 19 17 16 14 11 11 7 9 9 11 8 15 16 20 17 9 10 10 16 16 18
10 6 5 6 5 5 6 9 13 12 19 29 29 28 29 20 20 16 18 15 14 9 12 10 10 10 17 21 19 17 16 10 10 8 8 6 9 11 11 11 12 7 9 11 16 16 15 18 19
10 11 5 6 3 10 7 11 19 16 13 30 34 20 30 22 26 21 19 13 14 11 12 13 11 13 19 20 20 18 14 12 9 8 9 11 10 11 9 9 13 10 13 17 19 17 19 17 17
14 4 3 4 4 14 14 4 24 20 14 22 36 35 36 27 28 29 24 21 16 16 10 16 15 17 19 24 19 15 14 10 4 7 8 11 11 9 8 11 11 16 12 19 19 17 12 13 14
13 4 14 10 16 17 19 13 11 23 18 18 26 43 31 32 23 18 19 23 22 21 13 17 16 17 17 17 19 17 13 10 14 9 8 7 9 9 8 10 14 14 14 19 15 15 8 11 15
11 6 8 10 15 16 18 14 13 17 7 19 17 26 40 39 25 22 23 27 25 23 18 18 18 17 17 18 17 17 18 16 12 11 7 8 8 6 9 10 12 13 11 12 12 15 16 16 17
12 15 15 15 16 4 14 6 6 3 7 14 9 21 36 29 23 25 25 24 22 23 17 17 19 20 19 19 16 17 15 14 12 14 12 11 11 8 8 10 10 12 13 13 15 15 14 14 14
18 17 23 1 4 8 16 6 8 6 4 13 16 12 30 30 29 35 32 26 22 19 25 20 19 20 20 20 19 19 18 16 17 14 12 10 9 12 10 8 10 11 12 13 17 17 17 18 18
15 16 21 14 15 7 6 7 2 4 9 14 19 15 19 29 28 18 29 27 21 21 21 22 19 20 22 21 21 20 19 18 14 15 15 12 12 7 11 12 12 12 13 14 14 16 19 22 20
17 11 14 19 15 8 6 4 8 4 3 11 17 10 19 30 30 31 27 25 21 23 22 24 21 19 21 24 22 21 20 19 19 18 14 15 18 18 14 11 12 11 12 12 11 13 15 18 19
9 16 9 14 12 11 3 3 18 16 15 5 13 11 17 14 20 28 36 36 34 29 23 25 27 20 21 24 24 23 22 21 20 19 15 17 15 12 15 16 11 10 11 12 11 10 12 11 13
8 12 6 10 6 10 7 9 5 5 4 5 7 3 15 17 21 31 35 37 35 32 29 25 27 19 19 22 22 22 22 23 22 21 19 18 15 14 15 15 14 11 13 13 12 13 14 14 12
Wind_Direction
150 157 167 132 164 87 102 113 107 89 78 76 59 58 68 31 105 115 126 141 109 108 109 108 108 107 106 95 87 92 99 104 106 107 107 109 108 108 104 101 101 103 102 99 97 98 99 101 101
163 175 320 292 155 115 141 112 125 103 92 96 98 79 83 88 95 108 120 127 120 112 107 110 107 105 102 100 97 101 104 105 107 109 110 110 111 108 102 101 102 108 105 102 98 96 96 96 96
158 66 28 13 70 129 122 127 118 112 115 85 73 88 88 101 105 117 143 158 135 113 108 107 104 105 106 105 106 109 108 107 109 108 108 109 109 107 104 103 104 105 108 104 89 97 94 95 96
121 36 137 245 164 103 125 120 123 105 92 108 105 101 92 116 115 131 149 82 121 120 120 117 109 108 110 111 111 110 110 109 112 112 112 110 111 110 109 110 108 109 100 106 94 95 94 92 97
87 19 275 227 204 128 122 126 125 118 106 32 118 109 106 119 127 134 120 106 50 126 129 126 119 117 116 115 116 116 113 112 115 113 116 114 112 110 106 110 115 108 107 105 96 98 97 98 99
251 295 172 139 105 133 112 124 139 97 103 85 114 120 126 129 129 135 147 192 106 140 140 135 126 121 121 121 123 118 116 116 115 114 116 122 116 113 109 110 112 110 104 101 93 96 96 97 95
226 301 273 267 125 105 127 131 98 120 129 129 156 130 129 140 124 145 179 170 81 35 149 144 135 126 123 128 124 117 117 118 117 117 118 121 124 120 118 113 120 105 97 97 101 99 95 93 91
306 246 293 308 148 105 145 172 121 139 101 136 118 141 150 155 135 159 171 93 119 141 132 144 148 138 133 129 124 124 121 119 121 122 120 118 118 120 122 111 109 106 98 100 100 95 94 93 90
257 71 105 250 162 127 105 126 95 83 111 93 56 152 153 148 148 147 168 180 171 126 216 151 151 153 142 138 132 131 131 126 126 127 127 130 121 121 113 110 103 98 99 105 103 101 97 95 92
286 310 229 200 223 190 178 170 152 141 121 114 148 143 152 153 161 167 160 168 158 207 207 157 127 169 152 152 145 147 135 131 129 132 129 120 108 115 115 114 111 105 108 109 108 105 106 97 92
359 338 131 244 228 254 211 118 85 126 142 138 138 145 150 158 182 166 135 208 219 171 221 198 134 175 165 153 146 145 132 132 142 135 126 122 124 115 120 126 122 117 111 120 117 121 140 107 86
288 76 246 349 213 107 113 122 146 116 171 148 152 163 159 168 174 161 136 193 202 239 203 235 172 174 169 164 157 160 138 134 140 133 132 137 141 117 107 138 131 124 123 118 116 87 98 112 102
205 131 102 31 111 148 202 139 102 114 99 135 154 158 162 177 212 128 185 206 215 245 223 201 208 175 166 167 182 164 146 136 153 148 134 130 123 148 155 123 127 123 120 128 109 106 106 113 121
249 168 113 70 103 166 201 145 158 129 131 149 150 159 183 153 212 179 201 218 207 231 226 187 201 194 175 194 184 140 142 177 161 162 122 146 138 127 136 169 129 123 146 144 141 134 98 93 117
307 124 172 245 352 199 200 194 197 156 154 148 166 167 181 173 213 182 223 225 228 225 205 161 205 193 199 169 153 175 156 176 162 155 149 145 141 148 145 159 157 157 132 125 119 120 116 122 120
233 245 196 186 232 295 164 236 228 209 176 157 175 188 196 160 164 221 237 222 234 189 191 172 173 173 179 150 151 133 150 160 162 162 162 176 154 127 143 129 168 150 137 120 130 115 100 130 129
222 240 224 274 210 216 185 210 204 174 201 179 181 219 177 166 215 191 208 264 214 169 220 196 188 168 177 163 176 163 159 165 168 163 162 170 153 173 179 124 135 141 131 145 145 119 160 140 123
242 293 291 275 179 192 205 235 252 208 200 195 194 205 199 178 190 221 157 228 183 200 206 187 180 174 177 179 186 185 175 165 170 157 161 178 164 184 172 132 163 172 156 185 161 165 159 124 110
173 235 205 198 94 209 231 232 251 214 204 193 196 202 192 180 216 199 200 222 245 233 190 175 170 207 177 185 188 191 185 187 173 169 199 188 180 170 145 156 172 192 204 155 187 175 147 149 142
214 246 232 142 133 215 217 267 259 270 221 199 202 198 195 205 203 193 208 191 258 230 183 182 185 179 177 179 184 191 186 189 185 165 187 203 178 165 168 173 159 216 149 153 198 151 148 159 161
217 235 198 225 280 243 246 247 219 236 225 212 213 212 204 188 196 211 188 220 244 260 200 179 170 171 169 164 178 175 181 193 193 174 207 204 209 198 194 182 196 135 168 166 162 171 167 164 168
250 52 119 233 288 269 223 260 209 209 224 217 214 216 194 196 212 188 176 191 231 259 210 181 175 174 173 163 172 180 186 186 195 218 197 195 210 219 197 186 172 193 176 175 167 191 162 158 154
240 277 255 283 288 265 240 243 212 200 196 230 227 219 205 193 229 193 176 191 202 254 243 186 182 186 185 192 183 190 187 180 210 227 224 204 209 220 214 184 181 198 188 195 168 174 195 189 169
241 229 221 229 247 260 269 268 160 185 264 238 248 222 195 192 208 214 186 178 203 221 265 187 189 196 191 196 200 189 191 190 198 196 220 207 177 231 225 199 192 197 219 219 205 191 197 194 210
235 240 250 229 228 264 346 322 126 197 209 214 187 187 191 192 199 227 224 184 215 225 232 226 187 201 198 204 203 200 207 201 191 199 203 205 191 199 209 214 215 220 227 220 218 214 216 222 222
222 234 252 320 25 307 317 6 166 154 168 221 214 195 197 188 203 210 202 194 197 231 235 240 194 203 205 203 204 205 200 204 210 201 204 186 159 209 206 234 217 225 221 224 225 224 227 233 236
235 221 252 277 254 218 288 75 205 223 212 187 211 202 187 183 194 216 211 220 248 222 241 247 211 201 207 209 205 208 208 204 213 210 199 188 227 222 232 220 230 225 231 226 228 232 233 239 240
242 253 285 245 246 231 214 356 190 40 190 167 194 214 172 202 203 199 205 216 234 236 239 229 238 215 208 210 210 211 210 207 208 219 215 210 204 221 230 247 232 232 244 247 236 235 240 239 247
238 242 279 334 355 317 105 13 217 290 356 151 137 187 193 197 203 204 204 217 214 210 241 239 246 222 216 213 209 213 214 217 217 225 228 219 233 231 234 239 256 254 256 250 248 243 251 257 246
274 248 284 324 48 308 316 168 258 287 27 44 112 117 162 180 212 223 223 225 213 197 238 235 240 238 213 220 216 215 215 217 223 232 232 230 238 235 242 247 245 256 254 257 254 250 255 258 261